SCOUT A DEB, 2386

Orbit data source: Space-Track

SCOUT A DEB, 2386 is space debris in LEO originally from a launch on Sat, 26 Mar 1966 UTC launched from the Air Force Western Test Range (AFWTR). Debris objects in space refer to the collection of defunct objects orbiting the Earth. Examples of debris include non-operational satellites, rocket bodies, and fragments generated from explosions, collisions, or faulty payload assembly.

Loading next visibility...
Identifier
2386, 1966-024D
Orbit
LEO
Country
Flag of USUS
Related business
Manufacturer
Unknown
Mission
Spacecraft
Bus & Motor
Unknown
Mass
Unknown
Launch date (UTC)
1966-03-26 (59 years ago)
Launch vehicle
Unknown
Launch site
Air Force Western Test Range (AFWTR)
Object type
Payload
Rocket body
Debris
Shape & HBR
Unknown
Radar Cross Section
Small (<0.1 m²)

Expand to show TLE details & history
Last TLE update: 2 days ago

TLE from 2 days ago
0 SCOUT A DEB
1 02386U 66024D   25259.16715049  .00000260  00000-0  21885-3 0  9998
2 02386  90.0525 330.0428 0130465  92.8669 268.7440 13.81427404284112
Epoch: 2025-09-16T04:00Z
TLE epoch observation values (Epoch: 2025-09-16T04:00:41.802Z)
Latitude
0.00007°
Longitude
-85.49272°
Altitude
965.175 km
Speed
7.367 km/s
True Right ascension
22h 00m 10s
True Declination
0° 00' 00"
Sunlit
Object was in full shadow at epoch
Visualization orbit readout
Latitude
Unknown
Longitude
Unknown
Altitude
Unknown
Speed
Unknown
Apparent Right ascension
Unknown
Apparent Declination
Unknown
Sunlit
N/A
Visualization observer readout
Local Sidereal Time
20:48:25
Azimuth
Unknown
Elevation
Unknown
Doppler factor
Unknown
Orbital elements
Apogee altitude
1,051.514 km
Perigee altitude
860.149 km
Semi-major axis
7,333.969 km
Eccentricity
0.01305
Inclination
90.0525°
RAAN
330.0428°
Arg. of periapsis
92.8669°
True anomaly
267.25004°
Mean anomaly
268.744°
Eccentric anomaly
267.99695°
Mean motion
3.45569 °/min
Orbital period
104.18 mins
BSTAR
0.00021885
Loading maneuver chart data...
Computing Atmospheric mass density...
Loading historical data...
Loading historical data...
Loading historical data...
Loading historical data...
Loading historical data...
Loading historical data...
Loading historical data...

Documentation

Showing up to 5 results
|